Weather reports worldwide

Advertisment
Treviso/S. Angelo, Italy (16099): temperature & dewpoint: 18.06.2018 11:00:00 - 24.06.2018 11:00:00 (CEST)Treviso/S. Angelo, Italy (16099): wind speed: 18.06.2018 11:00:00 - 24.06.2018 11:00:00 (CEST)Treviso/S. Angelo, Italy (16099): wind direction: 18.06.2018 11:00:00 - 24.06.2018 11:00:00 (CEST)Treviso/S. Angelo, Italy (16099): reduced air pressure: 18.06.2018 11:00:00 - 24.06.2018 11:00:00 (CEST)Treviso/S. Angelo, Italy (16099): visibility: 18.06.2018 11:00:00 - 24.06.2018 11:00:00 (CEST)Treviso/S. Angelo, Italy (16099): precipitation: 18.06.2018 11:00:00 - 24.06.2018 11:00:00 (CEST)
Date & Time tt [°C] td [°C] ff [km/h] ff [kn] dd ppp [hPa] vv [km] rr [mm]
24.06.2018 11:00:00 23,0 9,9 8 4 SW 1018,9 - 0,0
24.06.2018 10:00:00 - - - - - - - -
24.06.2018 09:00:00 - - - - - - - -
24.06.2018 08:00:00 18,7 13,8 5 3 N 1019,2 - -
24.06.2018 07:00:00 - - - - - - - -
24.06.2018 06:00:00 - - - - - - - -
24.06.2018 05:00:00 17,1 13,1 4 2 NNW 1018,7 - 0,0
24.06.2018 04:00:00 - - - - - - - -
24.06.2018 03:00:00 - - - - - - - -
24.06.2018 02:00:00 15,8 12,2 2 1 N 1019,4 - -
24.06.2018 01:00:00 - - - - - - - -
24.06.2018 00:00:00 - - - - - - - -
23.06.2018 23:00:00 18,5 11,9 2 1 W 1019,3 30 0,0
23.06.2018 22:00:00 - - - - - - - -
23.06.2018 21:00:00 - - - - - - - -
23.06.2018 20:00:00 21,2 9,8 8 4 SE 1018,2 30 -
23.06.2018 19:00:00 - - - - - - - -
23.06.2018 18:00:00 - - - - - - - -
23.06.2018 17:00:00 23,6 9,4 13 7 SSE 1018,7 30 0,0
23.06.2018 16:00:00 - - - - - - - -
23.06.2018 15:00:00 - - - - - - - -
23.06.2018 14:00:00 23,1 11,3 9 5 SSE 1020,2 10 -
23.06.2018 13:00:00 - - - - - - - -
23.06.2018 12:00:00 - - - - - - - -
23.06.2018 11:00:00 21,8 8,7 8 4 SSE 1021,6 10 0,0
23.06.2018 10:00:00 - - - - - - - -
23.06.2018 09:00:00 - - - - - - - -
23.06.2018 08:00:00 18,3 11,5 5 3 N 1021,4 10 -
23.06.2018 07:00:00 - - - - - - - -
23.06.2018 06:00:00 - - - - - - - -
23.06.2018 05:00:00 15,5 11,0 8 4 N 1020,8 - 0,0
23.06.2018 04:00:00 - - - - - - - -
23.06.2018 03:00:00 - - - - - - - -
23.06.2018 02:00:00 17,0 11,1 8 4 NNE 1020,3 - -
23.06.2018 01:00:00 - - - - - - - -
23.06.2018 00:00:00 - - - - - - - -
22.06.2018 23:00:00 19,2 11,3 16 9 ENE 1019,2 15 0,0
22.06.2018 22:00:00 - - - - - - - -
22.06.2018 21:00:00 - - - - - - - -
22.06.2018 20:00:00 21,6 13,1 9 5 E 1016,6 20 -
22.06.2018 19:00:00 - - - - - - - -
22.06.2018 18:00:00 - - - - - - - -
22.06.2018 17:00:00 23,0 14,2 13 7 E 1015,2 20 0,0
22.06.2018 16:00:00 - - - - - - - -
22.06.2018 15:00:00 - - - - - - - -
22.06.2018 14:00:00 22,5 15,6 24 13 E 1015,0 10 -
22.06.2018 13:00:00 - - - - - - - -
22.06.2018 12:00:00 - - - - - - - -
22.06.2018 11:00:00 21,3 18,8 13 7 ENE 1013,7 10 0,0
22.06.2018 10:00:00 - - - - - - - -
22.06.2018 09:00:00 - - - - - - - -
22.06.2018 08:00:00 20,1 19,4 5 3 NE 1012,7 2,0 -
22.06.2018 07:00:00 - - - - - - - -
22.06.2018 06:00:00 - - - - - - - -
22.06.2018 05:00:00 20,4 18,9 11 6 ENE 1010,5 - 0,0
22.06.2018 04:00:00 - - - - - - - -
22.06.2018 03:00:00 - - - - - - - -
22.06.2018 02:00:00 23,3 21,6 8 4 NNE 1010,8 - -
22.06.2018 01:00:00 - - - - - - - -
22.06.2018 00:00:00 - - - - - - - -
21.06.2018 23:00:00 25,8 20,4 4 2 N 1012,0 - 0,0
21.06.2018 22:00:00 - - - - - - - -
21.06.2018 21:00:00 - - - - - - - -
21.06.2018 20:00:00 27,3 19,1 8 4 SE 1010,6 10 -
21.06.2018 19:00:00 - - - - - - - -
21.06.2018 18:00:00 - - - - - - - -
21.06.2018 17:00:00 31,0 18,8 11 6 SSE 1012,0 10 0,0
21.06.2018 16:00:00 - - - - - - - -
21.06.2018 15:00:00 - - - - - - - -
21.06.2018 14:00:00 30,8 17,3 9 5 S 1013,9 15 -
21.06.2018 13:00:00 - - - - - - - -
21.06.2018 12:00:00 - - - - - - - -
21.06.2018 11:00:00 29,3 18,1 5 3 SSW 1015,6 15 0,0
21.06.2018 10:00:00 - - - - - - - -
21.06.2018 09:00:00 - - - - - - - -
21.06.2018 08:00:00 24,1 18,2 5 3 N 1016,4 15 -
21.06.2018 07:00:00 - - - - - - - -
21.06.2018 06:00:00 - - - - - - - -
21.06.2018 05:00:00 20,4 16,8 2 1 N 1016,6 - 0,0
21.06.2018 04:00:00 - - - - - - - -
21.06.2018 03:00:00 - - - - - - - -
21.06.2018 02:00:00 22,0 17,2 2 1 N 1017,6 - -
21.06.2018 01:00:00 - - - - - - - -
21.06.2018 00:00:00 - - - - - - - -
20.06.2018 23:00:00 25,4 15,4 5 3 WSW 1018,6 15 0,0
20.06.2018 22:00:00 - - - - - - - -
20.06.2018 21:00:00 - - - - - - - -
20.06.2018 20:00:00 29,6 15,7 2 1 N 1017,7 20 -
20.06.2018 19:00:00 - - - - - - - -
20.06.2018 18:00:00 - - - - - - - -
20.06.2018 17:00:00 30,4 14,8 8 4 SE 1018,5 20 0,0
20.06.2018 16:00:00 - - - - - - - -
20.06.2018 15:00:00 - - - - - - - -
20.06.2018 14:00:00 30,4 16,1 9 5 E 1019,9 30 -
20.06.2018 13:00:00 - - - - - - - -
20.06.2018 12:00:00 - - - - - - - -
20.06.2018 11:00:00 28,0 15,1 13 7 E 1021,2 30 0,0
20.06.2018 10:00:00 - - - - - - - -
20.06.2018 09:00:00 - - - - - - - -
20.06.2018 08:00:00 25,4 15,3 8 4 NE 1021,2 30 -
20.06.2018 07:00:00 - - - - - - - -
20.06.2018 06:00:00 - - - - - - - -
20.06.2018 05:00:00 22,8 15,2 5 3 N 1020,4 - 0,0
20.06.2018 04:00:00 - - - - - - - -
20.06.2018 03:00:00 - - - - - - - -
20.06.2018 02:00:00 24,2 15,7 4 2 N 1020,5 - -
20.06.2018 01:00:00 - - - - - - - -
20.06.2018 00:00:00 - - - - - - - -
19.06.2018 23:00:00 23,8 15,1 0 0 N 1019,6 20 0,0
19.06.2018 22:00:00 - - - - - - - -
19.06.2018 21:00:00 - - - - - - - -
19.06.2018 20:00:00 28,3 14,1 5 3 SSW 1018,1 - -
19.06.2018 19:00:00 - - - - - - - -
19.06.2018 18:00:00 - - - - - - - -
19.06.2018 17:00:00 30,9 12,8 11 6 SSW 1018,4 20 0,0
19.06.2018 16:00:00 - - - - - - - -
19.06.2018 15:00:00 - - - - - - - -
19.06.2018 14:00:00 30,2 12,4 5 3 SSW 1019,6 25 -
19.06.2018 13:00:00 - - - - - - - -
19.06.2018 12:00:00 - - - - - - - -
19.06.2018 11:00:00 28,6 11,6 2 1 N 1020,5 20 0,0
19.06.2018 10:00:00 - - - - - - - -
19.06.2018 09:00:00 - - - - - - - -
19.06.2018 08:00:00 24,9 15,0 4 2 N 1020,0 20 -
19.06.2018 07:00:00 - - - - - - - -
19.06.2018 06:00:00 - - - - - - - -
19.06.2018 05:00:00 20,3 16,0 2 1 - 1019,0 - 0,0
19.06.2018 04:00:00 - - - - - - - -
19.06.2018 03:00:00 - - - - - - - -
19.06.2018 02:00:00 22,8 16,1 5 3 ENE 1018,4 - -
19.06.2018 01:00:00 - - - - - - - -
19.06.2018 00:00:00 - - - - - - - -
18.06.2018 23:00:00 23,6 15,3 4 2 NNW 1018,0 20 0,0
18.06.2018 22:00:00 - - - - - - - -
18.06.2018 21:00:00 - - - - - - - -
18.06.2018 20:00:00 26,1 15,0 11 6 NW 1015,0 30 -
18.06.2018 19:00:00 - - - - - - - -
18.06.2018 18:00:00 - - - - - - - -
18.06.2018 17:00:00 30,6 14,2 5 3 SSE 1015,1 20 0,0
18.06.2018 16:00:00 - - - - - - - -
18.06.2018 15:00:00 - - - - - - - -
18.06.2018 14:00:00 29,6 15,1 4 2 S 1015,7 30 -
18.06.2018 13:00:00 - - - - - - - -
18.06.2018 12:00:00 - - - - - - - -
18.06.2018 11:00:00 24,4 18,3 5 3 SW 1016,6 - 0,0

tt = temperature
td = dewpoint
ff = wind speed
dd = wind direction
ppp = reduced air pressure
vv = visibility
rr = precipitation

Next stations